NPV7592 ENZV-LIEE

Flight info

Callsign NPV7592
Flight time N/A
Altitude 35000
Route BIVKI P992 LINVI/N0461F350 DCT KUGAL DCT MALYK DCT TIVUN DCT EDISA Y852 NATOR N850 ODINA DCT PIDAD DCT GOPAT DCT KOVAS
Aircraft A320/M-SDE3FGHIRWY/LB1

Departure

Time 2026-04-12 11:42
Airport Stavanger Airport, Sola (ENZV)

Arrival

Time N/A
Airport Cagliari Elmas Airport (LIEE)
Time Latitude Longitude Altitude Speed Heading
2026-04-12 11:08 58.88061 5.62906 25 ft 0 kts 344°
2026-04-12 11:18 58.88058 5.62908 30 ft 3 kts 344°
2026-04-12 11:18 58.88033 5.62921 28 ft 4 kts 344°
2026-04-12 11:18 58.88008 5.62940 30 ft 4 kts 322°
2026-04-12 11:18 58.87994 5.62977 27 ft 4 kts 267°
2026-04-12 11:19 58.87994 5.62988 26 ft 2 kts 259°
2026-04-12 11:27 58.87994 5.62989 27 ft 0 kts 259°
2026-04-12 11:29 58.87993 5.62986 27 ft 1 kts 257°
2026-04-12 11:29 58.87994 5.62989 27 ft 2 kts 254°
2026-04-12 11:30 58.88014 5.63063 28 ft 11 kts 226°
2026-04-12 11:30 58.88042 5.63140 28 ft 0 kts 243°
2026-04-12 11:30 58.88038 5.63126 27 ft 3 kts 246°
2026-04-12 11:30 58.88036 5.63117 27 ft 0 kts 243°
2026-04-12 11:31 58.88032 5.63109 27 ft 3 kts 230°
2026-04-12 11:31 58.88008 5.63108 28 ft 2 kts 162°
2026-04-12 11:31 58.87997 5.63120 28 ft 6 kts 147°
2026-04-12 11:32 58.87955 5.63260 29 ft 8 kts 107°
2026-04-12 11:32 58.87951 5.63352 31 ft 12 kts 74°
2026-04-12 11:32 58.88063 5.63437 30 ft 18 kts 359°
2026-04-12 11:32 58.88184 5.63429 30 ft 17 kts 358°
2026-04-12 11:33 58.88294 5.63428 31 ft 15 kts
2026-04-12 11:33 58.88428 5.63429 31 ft 26 kts
2026-04-12 11:33 58.88632 5.63418 31 ft 27 kts 360°
2026-04-12 11:33 58.88810 5.63414 31 ft 25 kts 357°
2026-04-12 11:34 58.88980 5.63410 28 ft 24 kts 359°
2026-04-12 11:34 58.89144 5.63407 26 ft 23 kts 359°
2026-04-12 11:34 58.89274 5.63400 24 ft 16 kts 359°
2026-04-12 11:34 58.89342 5.63476 20 ft 9 kts 79°
2026-04-12 11:35 58.89342 5.63488 19 ft 0 kts 85°
2026-04-12 11:37 58.89344 5.63542 18 ft 13 kts 87°
2026-04-12 11:38 58.89321 5.63720 18 ft 13 kts 141°
2026-04-12 11:38 58.89279 5.63737 19 ft 0 kts 177°
2026-04-12 11:41 58.89275 5.63737 19 ft 4 kts 177°
2026-04-12 11:41 58.89010 5.63746 26 ft 72 kts 179°
2026-04-12 11:41 58.88329 5.63770 31 ft 124 kts 178°
2026-04-12 11:42 58.87427 5.63800 593 ft 127 kts 173°
2026-04-12 11:42 58.86547 5.63813 1355 ft 127 kts 172°
2026-04-12 11:42 58.85660 5.63837 1979 ft 132 kts 173°
2026-04-12 11:43 58.83553 5.63918 2742 ft 168 kts 174°
2026-04-12 11:43 58.82304 5.63972 2992 ft 193 kts 175°
2026-04-12 11:43 58.80882 5.64023 3421 ft 214 kts 176°
2026-04-12 11:43 58.79372 5.64069 4182 ft 220 kts 175°
2026-04-12 11:44 58.77884 5.64702 4991 ft 224 kts 154°
2026-04-12 11:44 58.76574 5.66389 5812 ft 229 kts 148°
2026-04-12 11:44 58.75273 5.68209 6578 ft 234 kts 148°
2026-04-12 11:44 58.73945 5.70082 7305 ft 239 kts 149°
2026-04-12 11:45 58.72586 5.71994 8055 ft 244 kts 149°
2026-04-12 11:45 58.71205 5.73936 8806 ft 249 kts 149°
2026-04-12 11:45 58.69795 5.75918 9561 ft 253 kts 149°
2026-04-12 11:45 58.68356 5.77940 10176 ft 263 kts 149°
2026-04-12 11:46 58.66809 5.80104 10383 ft 286 kts 149°
2026-04-12 11:46 58.65134 5.82440 10533 ft 309 kts 148°
2026-04-12 11:46 58.63332 5.84952 10671 ft 330 kts 148°
2026-04-12 11:46 58.61437 5.87600 11101 ft 341 kts 148°
2026-04-12 11:47 58.59510 5.90302 11727 ft 345 kts 148°
2026-04-12 11:47 58.57557 5.93027 12338 ft 349 kts 148°
2026-04-12 11:47 58.55580 5.95777 12937 ft 353 kts 148°
2026-04-12 11:47 58.53581 5.98553 13556 ft 357 kts 148°
2026-04-12 11:48 58.51557 6.01359 14129 ft 360 kts 148°
2026-04-12 11:48 58.49515 6.04179 14664 ft 363 kts 148°
2026-04-12 11:48 58.47462 6.07010 15222 ft 366 kts 147°
2026-04-12 11:48 58.45392 6.09868 15745 ft 368 kts 147°
2026-04-12 11:49 58.43308 6.12743 16287 ft 371 kts 147°
2026-04-12 11:49 58.41205 6.15632 16808 ft 374 kts 147°
2026-04-12 11:49 58.39113 6.18495 17326 ft 376 kts 147°
2026-04-12 11:49 58.36980 6.21415 17856 ft 379 kts 147°
2026-04-12 11:50 58.34787 6.24215 18348 ft 380 kts 153°
2026-04-12 11:50 58.32394 6.26331 18762 ft 380 kts 161°
2026-04-12 11:50 58.29925 6.28183 19197 ft 382 kts 161°
2026-04-12 11:50 58.27442 6.30050 19632 ft 385 kts 161°
2026-04-12 11:51 58.24952 6.31926 20061 ft 387 kts 161°
2026-04-12 11:51 58.22440 6.33821 20494 ft 389 kts 161°